Location: Casteau
(50.5142°N, 4.0161°E)
Time: 21:08:04
(UTC+00:00)

Tiros 1 - Pass Details

Date: 02 August 2021
Orbit: 630 x 663 km, 48.4° (Epoch: 28 September)

Event Time Altitude Azimuth Distance (km) Brightness Sun altitude
Rises 20:10:15 0° 267° (W) 2,979 11.4 -6.6°
Reaches altitude 10° 20:12:36 10° 265° (W) 2,063 10.5 -6.9°
Maximum altitude 20:17:20 69° 182° (S) 696 7.2 -7.5°
Drops below altitude 10° 20:22:01 10° 100° (E) 2,041 9.2 -8.1°
Enters shadow 20:22:49 - 99° (E) 2,353 9.5 -8.2°
Sets 20:24:20 0° 98° (E) 2,944 - -8.4°
